Regional Weather Roundup
Issued by NWS

Home | Current Version | Previous Version | Graphics & Text | Print | Product List | Glossary On
Versions: 1 2 3 4 5 6 7 8 9 10 11 12 13 14 15 16 17 18 19 20 21 22 23 24 25 26 27 28 29 30 31 32 33 34 35 36 37 38 39 40 41 42 43 44 45 46 47 48 49 50
000
ASUS43 KFSD 251902
RWRSD

WEATHER ROUNDUP FOR SOUTH DAKOTA
NATIONAL WEATHER SERVICE SIOUX FALLS SD
200 PM CDT SUN JUN 25 2017

NOTE: "FAIR" INDICATES FEW OR NO CLOUDS BELOW 12,000 FEET WITH NO
SIGNIFICANT WEATHER AND/OR OBSTRUCTIONS TO VISIBILITY.


SDZ001>005-009-010-012>017-252000-
NORTHWEST AND NORTH CENTRAL SOUTH DAKOTA

CITY           SKY/WX    TMP DP  RH WIND       PRES   REMARKS
BUFFALO          N/A     77  29  17 NW15G26   30.19F
FAITH            N/A     74  31  20 VRB7G16   30.24F
MOBRIDGE       MOSUNNY   75  36  24 VRB3      30.19F
$$

SDZ012>016-024>037-041>051-057-063-072>074-252000-
SOUTHWEST AND SOUTH CENTRAL SOUTH DAKOTA

CITY           SKY/WX    TMP DP  RH WIND       PRES   REMARKS
RAPID CTY ARPT SUNNY     74  35  24 VRB3      30.27F
PIERRE         SUNNY     74  36  25 W6        30.24
CUSTER         MOSUNNY   67  30  25 NW12G18   30.35F
ELLSWORTH AFB  MOSUNNY   74  35  24 E5        30.27F
PHILIP         SUNNY     78  34  20 SW12G18   30.25F
PINE RIDGE     MOSUNNY   75  41  29 W7        30.29F
SPEARFISH      FAIR      70  37  30 CALM      30.30F
WINNER         FAIR      75  32  20 CALM      30.28F
$$

SDZ004>011-016>023-039-040-252000-
NORTHEAST SOUTH DAKOTA

CITY           SKY/WX    TMP DP  RH WIND       PRES   REMARKS
ABERDEEN       CLOUDY    64  42  44 N15       30.27S
WATERTOWN      MOSUNNY   66  43  43 NW10      30.25F
SISSETON         N/A     67  42  40 NW18G25   30.21F
$$

SDZ017-020-022-023-036>040-048>070-252000-
SOUTHEAST SOUTH DAKOTA

CITY           SKY/WX    TMP DP  RH WIND       PRES   REMARKS
SIOUX FALLS    MOSUNNY   69  47  45 N15G21    30.26F
HURON          SUNNY     71  43  36 N7        30.27F
CHAMBERLAIN    SUNNY     74  39  28 N5        30.27F
MITCHELL       SUNNY     72  38  29 N10G20    30.28
YANKTON        SUNNY     70  41  34 NW12G23   30.28F
$$

ABBREVIATIONS USED IN REMARKS
   TC - TEMPERATURE IN CELSIUS
  WCI - WIND CHILL INDEX
   HX - HEAT INDEX
  VSB - VISIBILITY





USA.gov is the U.S. government's official web portal to all federal, state and local government web resources and services.